Location: Mentone
(34.5413°N, 85.5351°W)
Time: 18:13:32
(UTC-06:00)

Vanguard 3 - All Passes

Search period start: 25 November 2014 00:00
Search period end: 05 December 2014 00:00
Orbit: 508 x 3278 km, 33.3° (Epoch: 24 November)

Date Brightness Start Highest point End Pass type
(mag) Time Alt. Az. Time Alt. Az. Time Alt. Az.
25 Nov - 11:12:21 10° SSW 11:20:37 36° SE 11:33:51 10° E daylight
25 Nov - 13:22:18 10° WSW 13:34:02 75° SSE 13:53:02 10° E daylight
25 Nov - 15:35:08 10° W 15:50:45 86° S 16:11:11 10° E daylight
25 Nov - 17:49:49 10° W 18:08:22 69° SSW 18:26:56 10° SE visible
25 Nov - 20:07:03 10° W 20:24:02 37° SW 20:38:18 10° SSE visible
26 Nov - 10:03:10 10° S 10:08:49 19° SE 10:16:38 10° E daylight
26 Nov - 12:10:48 10° SW 12:20:27 59° SSE 12:36:58 10° ENE daylight
26 Nov - 14:22:25 10° W 14:35:39 85° S 14:55:42 10° E daylight
26 Nov - 16:36:03 10° W 16:53:02 79° SSW 17:13:02 10° ESE visible
26 Nov - 18:51:36 10° WNW 19:09:51 51° SSW 19:26:45 10° SE visible
26 Nov - 21:12:18 10° W 21:24:03 20° SW 21:34:16 10° S visible
27 Nov - 11:00:05 10° SSW 11:07:50 40° SE 11:20:46 10° E daylight
27 Nov - 13:10:18 10° WSW 13:21:17 78° SSE 13:39:45 10° E daylight
27 Nov - 15:22:56 10° W 15:37:44 85° S 15:58:09 10° ESE daylight
27 Nov - 17:37:15 10° W 17:55:01 64° SSW 18:13:56 10° SE visible
27 Nov - 19:54:32 10° W 20:10:35 32° SW 20:24:54 10° SSE visible
28 Nov - 09:50:31 10° S 09:56:05 22° SE 10:04:09 10° E daylight
28 Nov - 11:58:47 10° SW 12:07:46 64° SSE 12:23:41 10° E daylight
28 Nov - 14:10:23 10° W 14:22:51 86° S 14:42:30 10° E daylight
28 Nov - 16:23:43 10° W 16:39:52 75° SSW 16:59:59 10° ESE visible
28 Nov - 18:39:02 10° W 18:56:24 46° SW 19:13:30 10° SSE visible
28 Nov - 21:00:55 10° W 21:10:42 16° SW 21:19:41 10° SSW visible
29 Nov - 10:47:57 10° SW 10:55:12 44° SE 11:07:40 10° E daylight
29 Nov - 12:58:22 10° WSW 13:08:38 81° SSE 13:26:27 10° E daylight
29 Nov - 15:10:48 10° W 15:24:46 83° S 15:45:00 10° ESE daylight
29 Nov - 17:24:48 10° W 17:41:41 59° SSW 18:00:43 10° SE visible
29 Nov - 19:42:16 10° W 19:57:08 28° SW 20:11:09 10° S visible
30 Nov - 09:38:04 10° S 09:43:27 25° SE 09:51:33 10° E daylight
30 Nov - 11:46:52 10° WSW 11:55:13 69° SSE 12:10:24 10° E daylight
30 Nov - 13:58:25 10° W 14:10:06 86° S 14:29:15 10° E daylight
30 Nov - 16:11:26 10° W 16:26:42 71° SSW 16:46:45 10° ESE daylight
30 Nov - 18:26:37 10° W 18:42:58 41° SW 18:59:59 10° SSE visible
30 Nov - 20:50:43 10° WSW 20:57:25 13° SW 21:03:52 10° SSW visible
01 Dec - 10:35:56 10° SW 10:42:41 49° SSE 10:54:35 10° E daylight
01 Dec - 12:46:30 10° WSW 12:56:05 84° S 13:13:09 10° E daylight
01 Dec - 14:58:43 10° W 15:11:51 80° SSW 15:31:44 10° ESE daylight
01 Dec - 17:12:28 10° W 17:28:21 53° SSW 17:47:17 10° SE visible
01 Dec - 19:30:22 10° W 19:43:44 24° SW 19:56:58 10° S visible
02 Dec - 09:25:48 10° SSW 09:30:57 28° SE 09:38:54 10° E daylight
02 Dec - 11:35:01 10° WSW 11:42:48 73° SSE 11:57:09 10° E daylight
02 Dec - 13:46:30 10° W 13:57:26 85° S 14:15:57 10° E daylight
02 Dec - 15:59:15 10° W 16:13:35 65° SSW 16:33:20 10° SE daylight
02 Dec - 18:14:26 10° W 18:29:35 35° SW 18:46:09 10° SSE visible
03 Dec - 08:17:51 10° SSE 08:19:45 12° SE 08:21:56 10° ESE daylight
03 Dec - 10:24:01 10° SW 10:30:18 54° SSE 10:41:32 10° E daylight
03 Dec - 12:34:41 10° W 12:43:37 85° S 12:59:51 10° E daylight
03 Dec - 14:46:41 10° W 14:58:59 76° SSW 15:18:20 10° ESE daylight
03 Dec - 17:00:15 10° W 17:15:06 48° SSW 17:33:36 10° SE visible
03 Dec - 19:18:58 10° W 19:30:26 19° SW 19:42:12 10° S visible
04 Dec - 09:13:40 10° SSW 09:18:33 31° SE 09:26:15 10° E daylight
04 Dec - 11:23:14 10° WSW 11:30:28 77° SSE 11:43:57 10° E daylight
04 Dec - 13:34:37 10° W 13:44:50 83° S 14:02:36 10° ESE daylight
04 Dec - 15:47:08 10° W 16:00:32 59° SSW 16:19:45 10° SE daylight
04 Dec - 18:02:29 10° W 18:16:18 30° SW 18:31:59 10° SSE visible
